カタログに戻る

STARLINK-30931

運用中通信VLEO
NORAD 58413·PAYLOAD·🇺🇸 United States

打ち上げ Nov 22, 2023 から Cape Canaveral Space Force Station

Loading…

次のパス (今後24時間)

TLE

最新Source: CelesTrak SupGP

元期: Sep 14, 2026, 22:25 UTC

1 58413C 23180M   26257.93451389  .00056425  00000+0  20440-2 0  2579
2 58413  43.0044  52.5394 0001741 276.4216 305.3430 15.27544395    11

AllMySatでSTARLINK-30931をリアルタイム追跡

Download on the App Store